Fort Wayne, IN

4:51 AM EDT on September 25, 2017 (GMT -0400)
Fort Wayne International

Weather History for KFWA - December, 2012

Change the Weather History Date:

Thursday, December 13, 2012

  Actual Average Record
Temperature  
Mean Temperature 35 °F 30 °F  
Max Temperature 45 °F 37 °F 63 °F (2015)
Min Temperature 25 °F 23 °F -8 °F (1958)
Degree Days  
Heating Degree Days 30 35  
Month to date heating degree days 310 431  
Since 1 July heating degree days 1631 1648  
Cooling Degree Days 0 0  
Month to date cooling degree days 0 0  
Year to date cooling degree days 1108 809  
Moisture  
Dew Point 25 °F    
Average Humidity 69    
Maximum Humidity 88    
Minimum Humidity 49    
Precipitation  
Precipitation 0.00 in 0.08 in 1.14 in (1918)
Month to date precipitation 0.62 1.19  
Year to date precipitation 27.00 36.76  
Snow  
Snow 0.00 in 0.30 in 4.10 in (2000)
Month to date snowfall 0.2 2.9  
Since 1 July snowfall 0.8 5.0  
Snow Depth 0.00 in    
Sea Level Pressure  
Sea Level Pressure 30.33 in    
Wind  
Wind Speed 9 mph (SSW)    
Max Wind Speed 17 mph    
Max Gust Speed 20 mph    
Visibility 10 miles    
Events      
T = Trace of Precipitation, MM = Missing Value Source: NWS Daily Summary

Daily Weather History Graph

Daily Weather History Graph

Search for Another Location

Airport or City:

Trip Planner

Search our weather history database for the weather conditions in past years. The results will help you decide how hot, cold, wet, or windy it might be!

Date:

Astronomy

Dec. 13, 2012 Rise Set
Actual Time 7:57 AM EST 5:13 PM EST
Civil Twilight 7:26 AM EST 5:44 PM EST
Nautical Twilight 6:51 AM EST 6:18 PM EST
Astronomical Twilight 6:18 AM EST 6:52 PM EST
Moon 8:04 AM EST (12/13) 5:54 PM EST (12/13)
Length of Visible Light 10h 17m
Length of Day
9h 15m
New Moon, 0% of the Moon is Illuminated
Dec 13
New Moon
Dec 20
First Quarter
Dec 28
Full
Jan 4
Last Quarter
Jan 11
New

Hourly Weather History & Observations

Time (EST) Temp. Windchill Dew Point Humidity Pressure Visibility Wind Dir Wind Speed Gust Speed Precip Events Conditions
12:54 AM 27.0 °F 21.6 °F 21.9 °F 81% 30.39 in 10.0 mi South 4.6 mph - N/A   Clear
1:54 AM 26.1 °F 19.4 °F 21.9 °F 84% 30.39 in 10.0 mi SSW 5.8 mph - N/A   Clear
2:54 AM 27.0 °F 23.0 °F 21.9 °F 81% 30.40 in 10.0 mi South 3.5 mph - N/A   Clear
3:54 AM 25.0 °F 18.1 °F 21.0 °F 85% 30.40 in 10.0 mi South 5.8 mph - N/A   Clear
4:54 AM 26.1 °F 19.4 °F 21.9 °F 84% 30.39 in 10.0 mi South 5.8 mph - N/A   Clear
5:54 AM 26.1 °F 17.6 °F 21.0 °F 81% 30.40 in 10.0 mi South 8.1 mph - N/A   Clear
6:54 AM 26.6 °F 19.1 °F 21.2 °F 80% 30.37 in 10.0 mi South 6.9 mph - N/A   Clear
7:54 AM 25.0 °F 19.3 °F 21.0 °F 85% 30.41 in 10.0 mi South 4.6 mph - N/A   Partly Cloudy
8:54 AM 28.9 °F 25.2 °F 24.1 °F 82% 30.41 in 10.0 mi SSW 3.5 mph - N/A   Scattered Clouds
9:54 AM 33.1 °F 24.9 °F 27.0 °F 78% 30.40 in 10.0 mi SSW 10.4 mph - N/A   Scattered Clouds
10:54 AM 36.0 °F 28.0 °F 28.0 °F 73% 30.40 in 10.0 mi SSW 11.5 mph - N/A   Scattered Clouds
11:54 AM 39.0 °F 31.4 °F 28.0 °F 65% 30.37 in 10.0 mi SSW 12.7 mph - N/A   Scattered Clouds
12:54 PM 42.1 °F 36.1 °F 28.0 °F 58% 30.36 in 10.0 mi SW 10.4 mph - N/A   Scattered Clouds
1:54 PM 43.0 °F 36.8 °F 27.0 °F 53% 30.33 in 10.0 mi SSW 11.5 mph - N/A   Scattered Clouds
2:54 PM 44.1 °F 37.7 °F 27.0 °F 51% 30.30 in 10.0 mi SSW 12.7 mph - N/A   Mostly Cloudy
3:54 PM 44.1 °F 37.7 °F 28.0 °F 53% 30.27 in 10.0 mi South 12.7 mph - N/A   Mostly Cloudy
4:54 PM 39.9 °F 33.4 °F 28.0 °F 63% 30.26 in 10.0 mi South 10.4 mph - N/A   Mostly Cloudy
5:54 PM 35.6 °F 28.0 °F 26.6 °F 70% 30.24 in 10.0 mi South 10.4 mph - N/A   Scattered Clouds
7:54 PM 35.6 °F 27.5 °F 26.6 °F 70% 30.21 in 10.0 mi South 11.5 mph - N/A   Partly Cloudy
8:54 PM 35.1 °F 26.9 °F 27.0 °F 72% 30.24 in 10.0 mi South 11.5 mph - N/A   Partly Cloudy
9:54 PM 34.0 °F 26.0 °F 27.0 °F 75% 30.22 in 10.0 mi South 10.4 mph - N/A   Clear
10:54 PM 35.1 °F 27.4 °F 26.1 °F 70% 30.21 in 10.0 mi SSW 10.4 mph - N/A   Scattered Clouds
11:54 PM 30.9 °F 25.2 °F 26.1 °F 82% 30.25 in 10.0 mi West 5.8 mph - N/A   Scattered Clouds